Location: Kielce
(50.8833°N, 20.6167°E)
Time: 23:38:35
(UTC+02:00)

SR - Pass Details

Date: 21 April 2021
Orbit: 573 x 882 km, 66.7° (Epoch: 16 May)

Event Time Altitude Azimuth Distance (km) Brightness Sun altitude
Rises 07:44:58 0° 201° (SSW) 3,320 ? 20.1°
Reaches altitude 10° 07:47:22 10° 197° (SSW) 2,430 ? 20.4°
Maximum altitude 07:52:55 58° 120° (ESE) 1,003 ? 21.3°
Drops below altitude 10° 07:58:43 10° 43° (NE) 2,546 ? 22.2°
Sets 08:01:17 0° 40° (NE) 3,492 ? 22.6°
